Location: Godzisko
(49.9648°N, 19.4576°E)
Time: 01:48:39
(UTC+00:00)

Cosmos 1727 Rocket - Pass Details

Date: 20 April 2021
Orbit: 962 x 995 km, 82.9° (Epoch: 07 May)

Event Time Altitude Azimuth Distance (km) Brightness Sun altitude
Rises 02:34:44 0° 188° (S) 3,649 6.6 -10.2°
Reaches altitude 10° 02:37:13 10° 189° (S) 2,711 6.0 -9.8°
Maximum altitude 02:43:27 86° 280° (W) 988 4.0 -9.0°
Drops below altitude 10° 02:49:47 10° 9° (N) 2,753 6.9 -8.1°
Sets 02:52:19 0° 10° (N) 3,710 7.6 -7.7°
